Weather in Porto Santo

Portugal     33°04′06″N   16°20′32″W
temp.,
°C
wind,
m/s
gust,
m/s
humid.,
%
clouds,
%
prec.,
mm/h
press.,
hPa
HPBL,
m
24 may, tue
tue2401:00+18nne88733 0.0 1021923
04:00+18nne8873100 0.0 10201004
07:00+18nne8871100 0.1 10201134
10:00+18nne8876100 0.1 1022859
13:00+18nne8874100 0.2 1022866
16:00+18nne8866100 0.0 10221216
19:00+18nne897270 0.1 10221187
22:00+19nne986679 0.2 10231096
25 may, wed
wed2501:00+19ne996379 0.2 10231427
04:00+18ne996489 0.0 10221465
07:00+18ne996682 0.1 10231378
10:00+18ne9969100 0.1 10231171
13:00+18nne897499 0.2 1023997
16:00+19ne787199 0.1 1023969
19:00+19nne887398 0.3 10221016
22:00+19ne8972100 0.1 10221186
26 may, thu
thu2601:00+19ne8972100 0.3 10221082
04:00+18ne7873100 0.2 1020819
07:00+18nne7775100 0.4 1020689
10:00+18nne6769100 0.1 1021891
13:00+19ne666913 0.3 1021892
16:00+19nne556913 0.0 1020913
19:00+19nne557214 0.0 1019875
22:00+19nne4471100 0.0 1020996
27 may, fri
fri2701:00+19nne346882 0.0 10191003
04:00+19n33700 0.0 1018817
07:00+19n44737 0.0 1017723
10:00+19n337653 0.0 1018706
13:00+19n227240 0.0 1018720
16:00+19nnw227377 0.0 1017529
19:00+20nw337510 0.0 1016593
22:00+20nw33783 0.0 1017553
28 may, sat
sat2801:00+19nw44819 0.0 1017532
04:00+19nw55829 0.0 1015542
07:00+19nw448114 0.0 1015566
10:00+19wnw448043 0.0 1016580
13:00+19nw4478100 0.0 1016579
16:00+20wnw4477100 0.0 1015701
19:00+20wnw667597 0.0 1015805
22:00+20nw667045 0.0 1016954